Tiempo cada hora Barra do Bugres

Hoy, 14 Mayo, Viernes

Tiempo Temperatura Precipitaciones Viento Presión Humedad
00:00 +19°C° 0 mm 0 mps 747 mmHg 83%
01:00 +18°C° 0 mm 0 mps 747 mmHg 85%
02:00 +18°C° 0 mm 0 mps 746 mmHg 86%
03:00 +18°C° 0 mm 0 mps 747 mmHg 87%
04:00 +17°C° 0 mm 0 mps 747 mmHg 88%
05:00 +17°C° 0 mm 0 mps 747 mmHg 90%
06:00 +19°C° 0 mm 0 mps 747 mmHg 82%
07:00 +21°C° 0 mm 0 mps 748 mmHg 74%
08:00 +23°C° 0 mm 0 mps 748 mmHg 67%
09:00 +25°C° 0 mm 0 mps 748 mmHg 59%
10:00 +28°C° 0 mm 0 mps 748 mmHg 51%
11:00 +30°C° 0 mm 0 mps 748 mmHg 44%
12:00 +31°C° 0 mm 0 mps 747 mmHg 41%
13:00 +32°C° 0 mm 0 mps 746 mmHg 37%
14:00 +35°C° 0 mm 1 mps 745 mmHg 34%
15:00 +33°C° 0 mm 1 mps 745 mmHg 39%
16:00 +31°C° 0 mm 1 mps 745 mmHg 45%
17:00 +30°C° 0 mm 1 mps 744 mmHg 50%
18:00 +28°C° 0 mm 1 mps 745 mmHg 54%
19:00 +25°C° 0 mm 0 mps 745 mmHg 57%
20:00 +23°C° 0 mm 0 mps 745 mmHg 60%
21:00 +23°C° 0 mm 0 mps 745 mmHg 62%
22:00 +22°C° 0 mm 0 mps 746 mmHg 64%
23:00 +22°C° 0 mm 0 mps 746 mmHg 66%

Mañana, 15 Mayo, Sábado

Tiempo Temperatura Precipitaciones Viento Presión Humedad
00:00 +21°C° 0 mm 0 mps 746 mmHg 67%
01:00 +21°C° 0 mm 0 mps 746 mmHg 69%
02:00 +20°C° 0 mm 0 mps 745 mmHg 71%
03:00 +20°C° 0 mm 0 mps 746 mmHg 73%
04:00 +20°C° 0 mm 0 mps 746 mmHg 75%
05:00 +19°C° 0 mm 0 mps 746 mmHg 77%
06:00 +21°C° 0 mm 0 mps 746 mmHg 71%
07:00 +23°C° 0 mm 0 mps 747 mmHg 65%
08:00 +24°C° 0 mm 0 mps 747 mmHg 59%
09:00 +27°C° 0 mm 0 mps 747 mmHg 51%
10:00 +30°C° 0 mm 0 mps 747 mmHg 44%
11:00 +33°C° 0 mm 0 mps 747 mmHg 37%
12:00 +33°C° 0 mm 0 mps 746 mmHg 35%
13:00 +34°C° 0 mm 0 mps 745 mmHg 33%
14:00 +36°C° 0 mm 1 mps 745 mmHg 31%
15:00 +34°C° 0 mm 1 mps 744 mmHg 36%
16:00 +33°C° 0 mm 1 mps 744 mmHg 41%
17:00 +31°C° 0 mm 1 mps 744 mmHg 47%
18:00 +29°C° 0 mm 1 mps 745 mmHg 50%
19:00 +28°C° 0 mm 1 mps 745 mmHg 53%
20:00 +25°C° 0 mm 0 mps 745 mmHg 56%
21:00 +24°C° 0 mm 0 mps 745 mmHg 58%
22:00 +23°C° 0 mm 0 mps 745 mmHg 59%
23:00 +23°C° 0 mm 0 mps 746 mmHg 61%

Pasado mañana, 16 Mayo, Domingo

Tiempo Temperatura Precipitaciones Viento Presión Humedad
00:00 +23°C° 0 mm 0 mps 745 mmHg 62%
01:00 +23°C° 0 mm 0 mps 745 mmHg 63%
02:00 +22°C° 0 mm 0 mps 745 mmHg 63%
03:00 +22°C° 0 mm 0 mps 745 mmHg 64%
04:00 +22°C° 0 mm 0 mps 746 mmHg 64%
05:00 +22°C° 0 mm 0 mps 746 mmHg 64%
06:00 +23°C° 0 mm 0 mps 746 mmHg 62%
07:00 +24°C° 0 mm 0 mps 747 mmHg 59%
08:00 +25°C° 0 mm 0 mps 747 mmHg 57%
09:00 +27°C° 0 mm 0 mps 747 mmHg 51%
10:00 +29°C° 0 mm 0 mps 747 mmHg 45%
11:00 +32°C° 0 mm 0 mps 747 mmHg 40%
12:00 +32°C° 0 mm 0 mps 747 mmHg 38%
13:00 +33°C° 0 mm 0 mps 746 mmHg 36%
14:00 +33°C° 0 mm 0 mps 745 mmHg 35%
15:00 +32°C° 0 mm 0 mps 745 mmHg 39%
16:00 +30°C° 0 mm 0 mps 745 mmHg 43%
17:00 +29°C° 0 mm 0 mps 745 mmHg 47%
18:00 +27°C° 0 mm 0 mps 745 mmHg 50%
19:00 +26°C° 0 mm 0 mps 745 mmHg 52%
20:00 +25°C° 0 mm 0 mps 746 mmHg 54%
21:00 +24°C° 0 mm 0 mps 746 mmHg 56%
22:00 +24°C° 0 mm 0 mps 746 mmHg 57%
23:00 +24°C° 0 mm 0 mps 746 mmHg 58%

17 Mayo, Lunes

Tiempo Temperatura Precipitaciones Viento Presión Humedad
00:00 +23°C° 0 mm 0 mps 746 mmHg 61%
01:00 +22°C° 0 mm 0 mps 746 mmHg 63%
02:00 +22°C° 0 mm 0 mps 746 mmHg 65%
03:00 +22°C° 0 mm 0 mps 746 mmHg 67%
04:00 +21°C° 0 mm 0 mps 746 mmHg 68%
05:00 +21°C° 0 mm 0 mps 747 mmHg 69%
06:00 +22°C° 0 mm 0 mps 747 mmHg 66%
07:00 +24°C° 0 mm 0 mps 748 mmHg 62%
08:00 +25°C° 0 mm 0 mps 748 mmHg 59%
09:00 +27°C° 0 mm 0 mps 748 mmHg 53%
10:00 +29°C° 0 mm 0 mps 748 mmHg 47%
11:00 +33°C° 0 mm 1 mps 748 mmHg 42%
12:00 +33°C° 0 mm 1 mps 747 mmHg 40%
13:00 +34°C° 0 mm 1 mps 746 mmHg 38%
14:00 +34°C° 0 mm 1 mps 746 mmHg 36%
15:00 +33°C° 0 mm 1 mps 745 mmHg 42%
16:00 +31°C° 0 mm 1 mps 745 mmHg 47%
17:00 +30°C° 0 mm 1 mps 745 mmHg 53%
18:00 +29°C° 0 mm 1 mps 746 mmHg 56%
19:00 +28°C° 0 mm 1 mps 746 mmHg 59%
20:00 +26°C° 0 mm 1 mps 746 mmHg 62%
21:00 +26°C° 0 mm 1 mps 746 mmHg 64%
22:00 +25°C° 0 mm 1 mps 747 mmHg 65%
23:00 +25°C° 0 mm 1 mps 747 mmHg 67%

18 Mayo, Martes

Tiempo Temperatura Precipitaciones Viento Presión Humedad
00:00 +24°C° 0 mm 1 mps 747 mmHg 67%
01:00 +24°C° 0 mm 1 mps 746 mmHg 68%
02:00 +23°C° 0 mm 1 mps 746 mmHg 69%
03:00 +21°C° 0 mm 0 mps 746 mmHg 70%
04:00 +20°C° 0 mm 0 mps 746 mmHg 71%
05:00 +20°C° 0 mm 0 mps 746 mmHg 71%
06:00 +22°C° 0 mm 0 mps 747 mmHg 67%
07:00 +23°C° 0 mm 0 mps 747 mmHg 62%
08:00 +24°C° 0 mm 0 mps 748 mmHg 57%
09:00 +27°C° 0 mm 0 mps 748 mmHg 49%
10:00 +30°C° 0 mm 0 mps 748 mmHg 42%
11:00 +32°C° 0 mm 0 mps 747 mmHg 34%
12:00 +33°C° 0 mm 0 mps 746 mmHg 32%
13:00 +34°C° 0 mm 0 mps 745 mmHg 30%
14:00 +35°C° 0 mm 0 mps 744 mmHg 28%
15:00 +35°C° 0 mm 1 mps 744 mmHg 32%
16:00 +33°C° 0 mm 1 mps 744 mmHg 37%
17:00 +32°C° 0 mm 1 mps 743 mmHg 42%
18:00 +30°C° 0 mm 1 mps 744 mmHg 47%
19:00 +28°C° 0 mm 1 mps 744 mmHg 51%
20:00 +24°C° 0 mm 0 mps 745 mmHg 56%
21:00 +23°C° 0 mm 0 mps 745 mmHg 58%
22:00 +23°C° 0 mm 0 mps 745 mmHg 60%
23:00 +22°C° 0 mm 0 mps 745 mmHg 63%

19 Mayo, Miércoles

Tiempo Temperatura Precipitaciones Viento Presión Humedad
00:00 +21°C° 0 mm 0 mps 745 mmHg 65%
01:00 +21°C° 0 mm 0 mps 745 mmHg 67%
02:00 +20°C° 0 mm 0 mps 745 mmHg 69%
03:00 +20°C° 0 mm 0 mps 745 mmHg 70%
04:00 +20°C° 0 mm 0 mps 746 mmHg 71%
05:00 +19°C° 0 mm 0 mps 746 mmHg 73%
06:00 +21°C° 0 mm 0 mps 746 mmHg 66%
07:00 +23°C° 0 mm 0 mps 746 mmHg 60%
08:00 +25°C° 0 mm 0 mps 747 mmHg 54%
09:00 +28°C° 0 mm 0 mps 747 mmHg 47%
10:00 +33°C° 0 mm 1 mps 746 mmHg 40%
11:00 +36°C° 0 mm 1 mps 746 mmHg 33%
12:00 +37°C° 0 mm 1 mps 745 mmHg 30%
13:00 +38°C° 0 mm 2 mps 744 mmHg 27%
14:00 +39°C° 0 mm 2 mps 743 mmHg 24%
15:00 +37°C° 0 mm 2 mps 743 mmHg 29%
16:00 +34°C° 0 mm 1 mps 743 mmHg 34%
17:00 +32°C° 0 mm 1 mps 742 mmHg 39%
18:00 +31°C° 0 mm 1 mps 743 mmHg 42%
19:00 +29°C° 0 mm 1 mps 743 mmHg 45%
20:00 +25°C° 0 mm 0 mps 744 mmHg 49%
21:00 +27°C° 0 mm 1 mps 744 mmHg 50%
22:00 +26°C° 0 mm 1 mps 744 mmHg 52%
23:00 +26°C° 0 mm 1 mps 744 mmHg 54%
Mostrar más

Necesitamos Su Consentimiento

Meteoprog y nuestros Proveedores de Servicios pueden almacenar y acceder a sus datos personales como cookies, identificadores de dispositivo u otras tecnologías similares de su dispositivo y procesar dichos datos para personalizar contenido y anuncios, además de ofrecer funciones de redes sociales y analizar el tráfico.

  • Almacenar y/o acceder a información en su dispositivo

    Se puede almacenar o acceder a cookies, identificadores de dispositivo u otra información de su dispositivo para los fines anteriormente indicados.

  • Anuncios y contenido personalizados, medición de anuncios y contenido, percepciones del público, y desarrollo de productos

    Los anuncios y el contenido pueden personalizarse en base a su perfil. Se pueden añadir más datos para personalizar mejor los anuncios y contenidos. Se puede medir el rendimiento de los anuncios y contenidos. Se puede obtener la percepción sobre el público que ha visto los anuncios y contenidos. Dichos datos pueden usarse para desarrollar o mejorar la experiencia del usuario, sistemas y software.

Al hacer clic en ‘Estoy De Acuerdo’ usted permitirá el uso de las cookies, identificadores de dispositivo, balizas web u otras tecnologías similares indicadas. Su configuración puede cambiarse desde el navegador de su dispositivo.

Para ciertos fines, los intereses legítimos pueden ser considerados por encima del consentimiento. Puede leer más sobre ello en nuestra Política de Privacidad y Cookies.